Time,TemperatureF,DewpointF,PressureIn,WindDirection,WindDirectionDegrees,WindSpeedMPH,WindSpeedGustMPH,Humidity,HourlyPrecipIn,Conditions,Clouds,dailyrainin,SoftwareType,DateUTC
2013-06-28 00:01:00,8.6,-2.1,28.94,North,0,0.0,0.0,61,0.00,,---,0.00,VWS V14.01,2013-06-28 04:01:00,
2013-06-28 00:02:00,8.6,-2.1,28.94,North,0,0.0,0.0,61,0.00,,---,0.00,VWS V14.01,2013-06-28 04:02:00,
2013-06-28 00:03:00,8.6,-2.1,28.94,North,0,0.0,0.0,61,0.00,,---,0.00,VWS V14.01,2013-06-28 04:03:00,
2013-06-28 00:04:00,8.6,-2.1,28.94,North,0,0.0,0.0,61,0.00,,---,0.00,VWS V14.01,2013-06-28 04:04:00,
2013-06-28 00:09:00,6.4,-4.1,28.94,North,0,0.0,0.0,61,0.00,,---,0.00,VWS V14.01,2013-06-28 04:09:00,
2013-06-28 00:14:00,6.4,-4.1,28.94,North,0,0.0,0.0,61,0.00,,---,0.00,VWS V14.01,2013-06-28 04:14:00,
2013-06-28 00:19:00,6.4,-4.1,28.94,North,0,0.0,0.0,61,0.00,,---,0.00,VWS V14.01,2013-06-28 04:19:00,
2013-06-28 00:21:00,6.4,-4.1,28.94,North,0,0.0,0.0,61,0.00,,---,0.00,VWS V14.01,2013-06-28 04:21:00,
2013-06-28 00:26:00,6.4,-4.1,28.94,North,0,0.0,0.0,61,0.00,,---,0.00,VWS V14.01,2013-06-28 04:26:00,
2013-06-28 00:31:00,5.0,-5.5,28.94,North,0,0.0,0.0,61,0.00,,---,0.00,VWS V14.01,2013-06-28 04:31:00,
2013-06-28 00:36:00,5.0,-5.5,28.94,North,0,0.0,0.0,61,0.00,,---,0.00,VWS V14.01,2013-06-28 04:36:00,
2013-06-28 00:41:00,5.5,-5.0,28.94,North,0,0.0,0.0,61,0.00,,---,0.00,VWS V14.01,2013-06-28 04:41:00,
2013-06-28 00:46:00,6.1,-4.5,28.94,North,0,0.0,0.0,61,0.00,,---,0.00,VWS V14.01,2013-06-28 04:46:00,
2013-06-28 00:51:00,6.4,-4.1,28.94,North,0,0.0,0.0,61,0.00,,---,0.00,VWS V14.01,2013-06-28 04:51:00,
2013-06-28 00:57:00,6.4,-4.1,28.94,North,0,0.0,0.0,61,0.00,,---,0.00,VWS V14.01,2013-06-28 04:57:00,
2013-06-28 01:02:00,6.4,-4.1,28.94,North,0,0.0,0.0,61,0.00,,---,0.00,VWS V14.01,2013-06-28 05:02:00,
2013-06-28 01:07:00,7.7,-2.9,28.94,North,0,0.0,0.0,61,0.00,,---,0.00,VWS V14.01,2013-06-28 05:07:00,
2013-06-28 01:12:00,7.9,-2.8,28.94,North,0,0.0,0.0,61,0.00,,---,0.00,VWS V14.01,2013-06-28 05:12:00,
2013-06-28 01:17:00,8.4,-2.2,28.94,North,0,0.0,0.0,61,0.00,,---,0.00,VWS V14.01,2013-06-28 05:17:00,
2013-06-28 01:22:00,8.6,-2.1,28.94,North,0,0.0,0.0,61,0.00,,---,0.00,VWS V14.01,2013-06-28 05:22:00,
2013-06-28 01:27:00,8.8,-1.9,28.94,North,0,0.0,0.0,61,0.00,,---,0.00,VWS V14.01,2013-06-28 05:27:00,
2013-06-28 01:32:00,9.1,-1.6,28.94,North,0,0.0,0.0,61,0.00,,---,0.00,VWS V14.01,2013-06-28 05:32:00,
2013-06-28 01:37:00,9.5,-1.2,28.94,North,0,0.0,0.0,61,0.00,,---,0.00,VWS V14.01,2013-06-28 05:37:00,
2013-06-28 01:42:00,9.7,-1.0,28.94,North,0,0.0,0.0,61,0.00,,---,0.00,VWS V14.01,2013-06-28 05:42:00,
2013-06-28 01:47:00,9.1,-1.6,28.94,North,0,0.0,0.0,61,0.00,,---,0.00,VWS V14.01,2013-06-28 05:47:00,
2013-06-28 01:52:00,8.6,-2.1,28.94,North,0,0.0,0.0,61,0.00,,---,0.00,VWS V14.01,2013-06-28 05:52:00,
2013-06-28 01:57:00,8.1,-2.6,28.94,North,0,0.0,0.0,61,0.00,,---,0.00,VWS V14.01,2013-06-28 05:57:00,
2013-06-28 02:03:00,7.0,-3.6,28.94,North,0,0.0,0.0,61,0.00,,---,0.00,VWS V14.01,2013-06-28 06:03:00,
2013-06-28 02:08:00,6.1,-4.5,28.94,North,0,0.0,0.0,61,0.00,,---,0.00,VWS V14.01,2013-06-28 06:08:00,
2013-06-28 02:13:00,5.4,-5.2,28.94,North,0,0.0,0.0,61,0.00,,---,0.00,VWS V14.01,2013-06-28 06:13:00,
2013-06-28 02:18:00,5.0,-5.5,28.94,North,0,0.0,0.0,61,0.00,,---,0.00,VWS V14.01,2013-06-28 06:18:00,
2013-06-28 02:23:00,4.5,-6.0,28.94,North,0,0.0,0.0,61,0.00,,---,0.00,VWS V14.01,2013-06-28 06:23:00,
2013-06-28 02:28:00,4.8,-5.7,28.94,North,0,0.0,0.0,61,0.00,,---,0.00,VWS V14.01,2013-06-28 06:28:00,
2013-06-28 02:33:00,5.0,-5.5,28.94,North,0,0.0,0.0,61,0.00,,---,0.00,VWS V14.01,2013-06-28 06:33:00,
2013-06-28 02:38:00,5.5,-5.0,28.94,North,0,0.0,0.0,61,0.00,,---,0.00,VWS V14.01,2013-06-28 06:38:00,
2013-06-28 02:43:00,6.1,-4.5,28.94,North,0,0.0,0.0,61,0.00,,---,0.00,VWS V14.01,2013-06-28 06:43:00,
2013-06-28 02:48:00,6.4,-4.1,28.94,North,0,0.0,0.0,61,0.00,,---,0.00,VWS V14.01,2013-06-28 06:48:00,
2013-06-28 02:53:00,6.8,-3.8,28.94,North,0,0.0,0.0,61,0.00,,---,0.00,VWS V14.01,2013-06-28 06:53:00,
2013-06-28 02:58:00,7.3,-3.3,28.94,North,0,0.0,0.0,61,0.00,,---,0.00,VWS V14.01,2013-06-28 06:58:00,
2013-06-28 03:04:00,7.7,-2.9,28.94,North,0,0.0,0.0,61,0.00,,---,0.00,VWS V14.01,2013-06-28 07:04:00,
2013-06-28 03:09:00,7.9,-2.8,28.94,North,0,0.0,0.0,61,0.00,,---,0.00,VWS V14.01,2013-06-28 07:09:00,
2013-06-28 03:14:00,8.4,-2.2,28.94,North,0,0.0,0.0,61,0.00,,---,0.00,VWS V14.01,2013-06-28 07:14:00,
2013-06-28 03:20:00,8.8,-1.9,28.94,North,0,0.0,0.0,61,0.00,,---,0.00,VWS V14.01,2013-06-28 07:20:00,
2013-06-28 03:25:00,9.1,-1.6,28.94,North,0,0.0,0.0,61,0.00,,---,0.00,VWS V14.01,2013-06-28 07:25:00,
2013-06-28 03:30:00,9.3,-1.4,28.94,North,0,0.0,0.0,61,0.00,,---,0.00,VWS V14.01,2013-06-28 07:30:00,
2013-06-28 03:35:00,9.1,-1.6,28.91,North,0,0.0,0.0,61,0.00,,---,0.00,VWS V14.01,2013-06-28 07:35:00,
2013-06-28 03:40:00,8.2,-2.4,28.91,North,0,0.0,0.0,61,0.00,,---,0.00,VWS V14.01,2013-06-28 07:40:00,
2013-06-28 03:45:00,7.7,-2.9,28.91,North,0,0.0,0.0,61,0.00,,---,0.00,VWS V14.01,2013-06-28 07:45:00,
2013-06-28 03:50:00,7.0,-3.6,28.91,North,0,0.0,0.0,61,0.00,,---,0.00,VWS V14.01,2013-06-28 07:50:00,
2013-06-28 03:55:00,6.1,-4.5,28.91,North,0,0.0,0.0,61,0.00,,---,0.00,VWS V14.01,2013-06-28 07:55:00,
2013-06-28 04:02:00,5.5,-5.0,28.91,North,0,0.0,0.0,61,0.00,,---,0.00,VWS V14.01,2013-06-28 08:02:00,
2013-06-28 04:07:00,4.8,-5.7,28.91,North,0,0.0,0.0,61,0.00,,---,0.00,VWS V14.01,2013-06-28 08:07:00,
2013-06-28 04:12:00,4.6,-5.8,28.91,North,0,0.0,0.0,61,0.00,,---,0.00,VWS V14.01,2013-06-28 08:12:00,
2013-06-28 04:17:00,5.0,-5.5,28.91,North,0,0.0,0.0,61,0.00,,---,0.00,VWS V14.01,2013-06-28 08:17:00,
2013-06-28 04:22:00,5.4,-5.2,28.91,North,0,0.0,0.0,61,0.00,,---,0.00,VWS V14.01,2013-06-28 08:22:00,
2013-06-28 04:27:00,5.9,-4.6,28.91,North,0,0.0,0.0,61,0.00,,---,0.00,VWS V14.01,2013-06-28 08:27:00,
2013-06-28 04:32:00,6.3,-4.3,28.91,North,0,0.0,0.0,61,0.00,,---,0.00,VWS V14.01,2013-06-28 08:32:00,
2013-06-28 04:37:00,6.8,-3.8,28.91,North,0,0.0,0.0,61,0.00,,---,0.00,VWS V14.01,2013-06-28 08:37:00,
2013-06-28 04:42:00,7.2,-3.4,28.91,North,0,0.0,0.0,61,0.00,,---,0.00,VWS V14.01,2013-06-28 08:42:00,
2013-06-28 04:48:00,7.5,-3.1,28.91,North,0,0.0,0.0,61,0.00,,---,0.00,VWS V14.01,2013-06-28 08:48:00,
2013-06-28 04:53:00,7.9,-2.8,28.91,North,0,0.0,0.0,61,0.00,,---,0.00,VWS V14.01,2013-06-28 08:53:00,
2013-06-28 04:58:00,8.2,-2.4,28.91,North,0,0.0,0.0,61,0.00,,---,0.00,VWS V14.01,2013-06-28 08:58:00,
2013-06-28 05:03:00,8.6,-2.1,28.91,North,0,0.0,0.0,61,0.00,,---,0.00,VWS V14.01,2013-06-28 09:03:00,
2013-06-28 05:08:00,9.0,-1.7,28.91,North,0,0.0,0.0,61,0.00,,---,0.00,VWS V14.01,2013-06-28 09:08:00,
2013-06-28 05:13:00,9.0,-1.7,28.91,North,0,0.0,0.0,61,0.00,,---,0.00,VWS V14.01,2013-06-28 09:13:00,
2013-06-28 05:18:00,8.6,-2.1,28.91,North,0,0.0,0.0,61,0.00,,---,0.00,VWS V14.01,2013-06-28 09:18:00,
2013-06-28 05:23:00,7.9,-2.8,28.91,North,0,0.0,0.0,61,0.00,,---,0.00,VWS V14.01,2013-06-28 09:23:00,
2013-06-28 05:28:00,7.0,-3.6,28.91,North,0,0.0,0.0,61,0.00,,---,0.00,VWS V14.01,2013-06-28 09:28:00,
2013-06-28 05:33:00,6.3,-4.3,28.91,North,0,0.0,0.0,61,0.00,,---,0.00,VWS V14.01,2013-06-28 09:33:00,
2013-06-28 05:38:00,5.5,-5.0,28.91,North,0,0.0,0.0,61,0.00,,---,0.00,VWS V14.01,2013-06-28 09:38:00,
2013-06-28 05:43:00,5.0,-5.5,28.91,North,0,0.0,0.0,61,0.00,,---,0.00,VWS V14.01,2013-06-28 09:43:00,
2013-06-28 05:48:00,4.5,-6.0,28.91,North,0,0.0,0.0,61,0.00,,---,0.00,VWS V14.01,2013-06-28 09:48:00,
2013-06-28 05:53:00,3.7,-6.7,28.91,North,0,0.0,0.0,61,0.00,,---,0.00,VWS V14.01,2013-06-28 09:53:00,
2013-06-28 05:58:00,3.7,-6.7,28.91,North,0,0.0,0.0,61,0.00,,---,0.00,VWS V14.01,2013-06-28 09:58:00,
2013-06-28 06:03:00,4.5,-6.0,28.91,North,0,0.0,0.0,61,0.00,,---,0.00,VWS V14.01,2013-06-28 10:03:00,
2013-06-28 06:08:00,5.0,-5.5,28.91,North,0,0.0,0.0,61,0.00,,---,0.00,VWS V14.01,2013-06-28 10:08:00,
2013-06-28 06:13:00,5.5,-5.0,28.91,North,0,0.0,0.0,61,0.00,,---,0.00,VWS V14.01,2013-06-28 10:13:00,
2013-06-28 06:18:00,5.9,-4.6,28.91,North,0,0.0,0.0,61,0.00,,---,0.00,VWS V14.01,2013-06-28 10:18:00,
2013-06-28 06:23:00,6.3,-4.3,28.91,North,0,0.0,0.0,61,0.00,,---,0.00,VWS V14.01,2013-06-28 10:23:00,
2013-06-28 06:28:00,6.8,-3.8,28.91,North,0,0.0,0.0,61,0.00,,---,0.00,VWS V14.01,2013-06-28 10:28:00,
2013-06-28 06:33:00,7.2,-3.4,28.94,North,0,0.0,0.0,61,0.00,,---,0.00,VWS V14.01,2013-06-28 10:33:00,
2013-06-28 06:38:00,7.5,-3.1,28.94,North,0,0.0,0.0,61,0.00,,---,0.00,VWS V14.01,2013-06-28 10:38:00,
2013-06-28 06:43:00,7.9,-2.8,28.94,North,0,0.0,0.0,61,0.00,,---,0.00,VWS V14.01,2013-06-28 10:43:00,
2013-06-28 06:48:00,8.1,-2.6,28.94,North,0,0.0,0.0,61,0.00,,---,0.00,VWS V14.01,2013-06-28 10:48:00,
2013-06-28 06:53:00,8.4,-2.2,28.94,North,0,0.0,0.0,61,0.00,,---,0.00,VWS V14.01,2013-06-28 10:53:00,
2013-06-28 06:58:00,8.8,-1.9,28.94,North,0,0.0,0.0,61,0.00,,---,0.00,VWS V14.01,2013-06-28 10:58:00,
2013-06-28 07:04:00,9.0,-1.7,28.94,North,0,0.0,0.0,61,0.00,,---,0.00,VWS V14.01,2013-06-28 11:04:00,
2013-06-28 07:09:00,8.6,-2.1,28.94,North,0,0.0,0.0,61,0.00,,---,0.00,VWS V14.01,2013-06-28 11:09:00,
2013-06-28 07:14:00,7.9,-2.8,28.94,North,0,0.0,0.0,61,0.00,,---,0.00,VWS V14.01,2013-06-28 11:14:00,
2013-06-28 07:19:00,7.0,-3.6,28.94,North,0,0.0,0.0,61,0.00,,---,0.00,VWS V14.01,2013-06-28 11:19:00,
2013-06-28 07:24:00,6.3,-4.3,28.94,North,0,0.0,0.0,61,0.00,,---,0.00,VWS V14.01,2013-06-28 11:24:00,
2013-06-28 07:29:00,5.5,-5.0,28.94,North,0,0.0,0.0,61,0.00,,---,0.00,VWS V14.01,2013-06-28 11:29:00,
2013-06-28 07:34:00,5.0,-5.5,28.94,North,0,0.0,0.0,61,0.00,,---,0.00,VWS V14.01,2013-06-28 11:34:00,
2013-06-28 07:39:00,4.3,-6.2,28.94,North,0,0.0,0.0,61,0.00,,---,0.00,VWS V14.01,2013-06-28 11:39:00,
2013-06-28 07:44:00,3.7,-6.7,28.94,North,0,0.0,0.0,61,0.00,,---,0.00,VWS V14.01,2013-06-28 11:44:00,
2013-06-28 07:49:00,3.4,-7.0,28.94,North,0,0.0,0.0,61,0.00,,---,0.00,VWS V14.01,2013-06-28 11:49:00,
2013-06-28 07:54:00,3.7,-6.7,28.94,North,0,0.0,0.0,61,0.00,,---,0.00,VWS V14.01,2013-06-28 11:54:00,
2013-06-28 07:59:00,4.3,-6.2,28.94,North,0,0.0,0.0,61,0.00,,---,0.00,VWS V14.01,2013-06-28 11:59:00,
2013-06-28 08:04:00,4.6,-5.8,28.94,North,0,0.0,0.0,61,0.00,,---,0.00,VWS V14.01,2013-06-28 12:04:00,
2013-06-28 08:09:00,5.4,-5.2,28.94,North,0,0.0,0.0,61,0.00,,---,0.00,VWS V14.01,2013-06-28 12:09:00,
2013-06-28 08:14:00,5.9,-4.6,28.94,North,0,0.0,0.0,61,0.00,,---,0.00,VWS V14.01,2013-06-28 12:14:00,
2013-06-28 08:19:00,6.3,-4.3,28.94,North,0,0.0,0.0,61,0.00,,---,0.00,VWS V14.01,2013-06-28 12:19:00,
2013-06-28 08:24:00,6.6,-4.0,28.94,North,0,0.0,0.0,61,0.00,,---,0.00,VWS V14.01,2013-06-28 12:24:00,
2013-06-28 08:29:00,7.0,-3.6,28.94,North,0,0.0,0.0,61,0.00,,---,0.00,VWS V14.01,2013-06-28 12:29:00,
2013-06-28 08:34:00,7.3,-3.3,28.94,North,0,0.0,0.0,61,0.00,,---,0.00,VWS V14.01,2013-06-28 12:34:00,
2013-06-28 08:39:00,7.7,-2.9,28.94,North,0,0.0,0.0,61,0.00,,---,0.00,VWS V14.01,2013-06-28 12:39:00,
2013-06-28 08:44:00,8.1,-2.6,28.94,North,0,0.0,0.0,61,0.00,,---,0.00,VWS V14.01,2013-06-28 12:44:00,
2013-06-28 08:49:00,8.1,-2.6,28.94,North,0,0.0,0.0,61,0.00,,---,0.00,VWS V14.01,2013-06-28 12:49:00,
2013-06-28 08:54:00,8.6,-2.1,28.94,North,0,0.0,0.0,61,0.00,,---,0.00,VWS V14.01,2013-06-28 12:54:00,
2013-06-28 08:59:00,8.6,-2.1,28.94,North,0,0.0,0.0,61,0.00,,---,0.00,VWS V14.01,2013-06-28 12:59:00,
2013-06-28 09:04:00,8.6,-2.1,28.94,North,0,0.0,0.0,61,0.00,,---,0.00,VWS V14.01,2013-06-28 13:04:00,
2013-06-28 09:09:00,8.2,-2.4,28.94,North,0,0.0,0.0,61,0.00,,---,0.00,VWS V14.01,2013-06-28 13:09:00,
2013-06-28 09:14:00,7.5,-3.1,28.94,North,0,0.0,0.0,61,0.00,,---,0.00,VWS V14.01,2013-06-28 13:14:00,
2013-06-28 09:19:00,7.0,-3.6,28.91,North,0,0.0,0.0,61,0.00,,---,0.00,VWS V14.01,2013-06-28 13:19:00,
2013-06-28 09:24:00,6.1,-4.5,28.91,North,0,0.0,0.0,61,0.00,,---,0.00,VWS V14.01,2013-06-28 13:24:00,
2013-06-28 09:29:00,6.1,-4.5,28.91,North,0,0.0,0.0,61,0.00,,---,0.00,VWS V14.01,2013-06-28 13:29:00,
2013-06-28 09:34:00,4.6,-5.8,28.91,North,0,0.0,0.0,61,0.00,,---,0.00,VWS V14.01,2013-06-28 13:34:00,
2013-06-28 09:39:00,4.1,-6.3,28.91,North,0,0.0,0.0,61,0.00,,---,0.00,VWS V14.01,2013-06-28 13:39:00,
2013-06-28 09:41:00,3.7,-6.7,28.91,North,0,0.0,0.0,61,0.00,,---,0.00,VWS V14.01,2013-06-28 13:41:00,
2013-06-28 09:46:00,3.2,-7.2,28.91,North,0,0.0,0.0,61,0.00,,---,0.00,VWS V14.01,2013-06-28 13:46:00,
2013-06-28 09:52:00,3.0,-7.4,28.91,North,0,0.0,0.0,61,0.00,,---,0.00,VWS V14.01,2013-06-28 13:52:00,
2013-06-28 09:57:00,3.7,-6.7,28.91,North,0,0.0,0.0,61,0.00,,---,0.00,VWS V14.01,2013-06-28 13:57:00,
2013-06-28 10:03:00,4.3,-6.2,28.91,North,0,0.0,0.0,61,0.00,,---,0.00,VWS V14.01,2013-06-28 14:03:00,
2013-06-28 10:08:00,4.8,-5.7,28.91,North,0,0.0,0.0,61,0.00,,---,0.00,VWS V14.01,2013-06-28 14:08:00,
2013-06-28 10:13:00,5.4,-5.2,28.91,North,0,0.0,0.0,61,0.00,,---,0.00,VWS V14.01,2013-06-28 14:13:00,
2013-06-28 10:18:00,5.9,-4.6,28.91,North,0,0.0,0.0,61,0.00,,---,0.00,VWS V14.01,2013-06-28 14:18:00,
2013-06-28 10:23:00,6.3,-4.3,28.91,North,0,0.0,0.0,61,0.00,,---,0.00,VWS V14.01,2013-06-28 14:23:00,
2013-06-28 10:28:00,6.6,-4.0,28.91,North,0,0.0,0.0,61,0.00,,---,0.00,VWS V14.01,2013-06-28 14:28:00,
2013-06-28 10:33:00,7.0,-3.6,28.91,North,0,0.0,0.0,61,0.00,,---,0.00,VWS V14.01,2013-06-28 14:33:00,
2013-06-28 10:38:00,7.3,-3.3,28.91,North,0,0.0,0.0,61,0.00,,---,0.00,VWS V14.01,2013-06-28 14:38:00,
2013-06-28 10:43:00,7.7,-2.9,28.91,North,0,0.0,0.0,61,0.00,,---,0.00,VWS V14.01,2013-06-28 14:43:00,
2013-06-28 10:48:00,8.1,-2.6,28.91,North,0,0.0,0.0,61,0.00,,---,0.00,VWS V14.01,2013-06-28 14:48:00,
2013-06-28 10:54:00,8.4,-2.2,28.91,North,0,0.0,0.0,61,0.00,,---,0.00,VWS V14.01,2013-06-28 14:54:00,
2013-06-28 10:59:00,8.8,-1.9,28.91,North,0,0.0,0.0,61,0.00,,---,0.00,VWS V14.01,2013-06-28 14:59:00,
2013-06-28 11:05:00,8.8,-1.9,28.91,North,0,0.0,0.0,61,0.00,,---,0.00,VWS V14.01,2013-06-28 15:05:00,
2013-06-28 11:10:00,8.4,-2.2,28.91,North,0,0.0,0.0,61,0.00,,---,0.00,VWS V14.01,2013-06-28 15:10:00,
2013-06-28 11:16:00,8.4,-2.2,28.91,North,0,0.0,0.0,61,0.00,,---,0.00,VWS V14.01,2013-06-28 15:16:00,
2013-06-28 11:21:00,8.4,-2.2,28.91,North,0,0.0,0.0,61,0.00,,---,0.00,VWS V14.01,2013-06-28 15:21:00,
2013-06-28 11:26:00,8.4,-2.2,28.91,North,0,0.0,0.0,61,0.00,,---,0.00,VWS V14.01,2013-06-28 15:26:00,
2013-06-28 11:31:00,5.5,-5.0,28.91,North,0,0.0,0.0,61,0.00,,---,0.00,VWS V14.01,2013-06-28 15:31:00,
2013-06-28 11:36:00,4.5,-6.0,28.94,North,0,0.0,0.0,61,0.00,,---,0.00,VWS V14.01,2013-06-28 15:36:00,
2013-06-28 11:41:00,3.7,-6.7,28.94,North,0,0.0,0.0,61,0.00,,---,0.00,VWS V14.01,2013-06-28 15:41:00,
2013-06-28 11:46:00,3.2,-7.2,28.94,North,0,0.0,0.0,61,0.00,,---,0.00,VWS V14.01,2013-06-28 15:46:00,
2013-06-28 11:51:00,2.8,-7.6,28.94,North,0,0.0,0.0,61,0.00,,---,0.00,VWS V14.01,2013-06-28 15:51:00,
2013-06-28 11:56:00,2.8,-7.6,28.94,North,0,0.0,0.0,61,0.00,,---,0.00,VWS V14.01,2013-06-28 15:56:00,
2013-06-28 12:01:00,3.4,-7.0,28.94,North,0,0.0,0.0,61,0.00,,---,0.00,VWS V14.01,2013-06-28 16:01:00,
2013-06-28 12:06:00,4.1,-6.3,28.94,North,0,0.0,0.0,61,0.00,,---,0.00,VWS V14.01,2013-06-28 16:06:00,
2013-06-28 12:11:00,4.6,-5.8,28.94,North,0,0.0,0.0,61,0.00,,---,0.00,VWS V14.01,2013-06-28 16:11:00,
2013-06-28 12:16:00,5.4,-5.2,28.94,North,0,0.0,0.0,61,0.00,,---,0.00,VWS V14.01,2013-06-28 16:16:00,
2013-06-28 12:21:00,5.5,-5.0,28.94,North,0,0.0,0.0,61,0.00,,---,0.00,VWS V14.01,2013-06-28 16:21:00,
2013-06-28 12:26:00,6.1,-4.5,28.94,North,0,0.0,0.0,61,0.00,,---,0.00,VWS V14.01,2013-06-28 16:26:00,
2013-06-28 12:32:00,6.6,-4.0,28.94,North,0,0.0,0.0,61,0.00,,---,0.00,VWS V14.01,2013-06-28 16:32:00,
2013-06-28 12:38:00,7.0,-3.6,28.94,North,0,0.0,0.0,61,0.00,,---,0.00,VWS V14.01,2013-06-28 16:38:00,
2013-06-28 12:43:00,7.3,-3.3,28.94,North,0,0.0,0.0,61,0.00,,---,0.00,VWS V14.01,2013-06-28 16:43:00,
2013-06-28 12:48:00,7.7,-2.9,28.94,North,0,0.0,0.0,61,0.00,,---,0.00,VWS V14.01,2013-06-28 16:48:00,
2013-06-28 12:53:00,7.9,-2.8,28.94,North,0,0.0,0.0,61,0.00,,---,0.00,VWS V14.01,2013-06-28 16:53:00,
2013-06-28 12:58:00,8.2,-2.4,28.94,North,0,0.0,0.0,61,0.00,,---,0.00,VWS V14.01,2013-06-28 16:58:00,
2013-06-28 13:03:00,8.6,-2.1,28.91,North,0,0.0,0.0,61,0.00,,---,0.00,VWS V14.01,2013-06-28 17:03:00,
2013-06-28 13:08:00,8.8,-1.9,28.91,North,0,0.0,0.0,61,0.00,,---,0.00,VWS V14.01,2013-06-28 17:08:00,
2013-06-28 13:13:00,8.8,-1.9,28.91,North,0,0.0,0.0,61,0.00,,---,0.00,VWS V14.01,2013-06-28 17:13:00,
2013-06-28 13:19:00,8.4,-2.2,28.91,North,0,0.0,0.0,61,0.00,,---,0.00,VWS V14.01,2013-06-28 17:19:00,
2013-06-28 13:24:00,7.5,-3.1,28.91,North,0,0.0,0.0,61,0.00,,---,0.00,VWS V14.01,2013-06-28 17:24:00,
2013-06-28 13:29:00,6.8,-3.8,28.91,North,0,0.0,0.0,61,0.00,,---,0.00,VWS V14.01,2013-06-28 17:29:00,
2013-06-28 13:34:00,6.6,-4.0,28.91,North,0,0.0,0.0,61,0.00,,---,0.00,VWS V14.01,2013-06-28 17:34:00,
2013-06-28 13:39:00,8.4,-2.2,28.91,North,0,0.0,0.0,61,0.00,,---,0.00,VWS V14.01,2013-06-28 17:39:00,
2013-06-28 13:44:00,8.4,-2.2,28.91,North,0,0.0,0.0,61,0.00,,---,0.00,VWS V14.01,2013-06-28 17:44:00,
2013-06-28 13:49:00,7.9,-2.8,28.91,North,0,0.0,0.0,61,0.00,,---,0.00,VWS V14.01,2013-06-28 17:49:00,
2013-06-28 13:54:00,7.0,-3.6,28.91,North,0,0.0,0.0,61,0.00,,---,0.00,VWS V14.01,2013-06-28 17:54:00,
2013-06-28 13:59:00,6.6,-4.0,28.91,North,0,0.0,0.0,61,0.00,,---,0.00,VWS V14.01,2013-06-28 17:59:00,
2013-06-28 14:04:00,5.9,-4.6,28.91,North,0,0.0,0.0,61,0.00,,---,0.00,VWS V14.01,2013-06-28 18:04:00,
2013-06-28 14:09:00,5.4,-5.2,28.91,North,0,0.0,0.0,61,0.00,,---,0.00,VWS V14.01,2013-06-28 18:09:00,
2013-06-28 14:14:00,6.4,-4.1,28.91,North,0,0.0,0.0,61,0.00,,---,0.00,VWS V14.01,2013-06-28 18:14:00,
2013-06-28 14:19:00,7.9,-2.8,28.91,North,0,0.0,0.0,61,0.00,,---,0.00,VWS V14.01,2013-06-28 18:19:00,
2013-06-28 14:31:00,8.8,-1.9,28.91,North,0,0.0,0.0,61,0.00,,---,0.00,VWS V14.01,2013-06-28 18:31:00,
2013-06-28 14:36:00,8.4,-2.2,28.91,North,0,0.0,0.0,61,0.00,,---,0.00,VWS V14.01,2013-06-28 18:36:00,
2013-06-28 14:41:00,7.9,-2.8,28.91,North,0,0.0,0.0,61,0.00,,---,0.00,VWS V14.01,2013-06-28 18:41:00,
2013-06-28 14:46:00,7.3,-3.3,28.91,North,0,0.0,0.0,61,0.00,,---,0.00,VWS V14.01,2013-06-28 18:46:00,
2013-06-28 14:51:00,6.8,-3.8,28.91,North,0,0.0,0.0,61,0.00,,---,0.00,VWS V14.01,2013-06-28 18:51:00,
2013-06-28 14:56:00,6.3,-4.3,28.91,North,0,0.0,0.0,61,0.00,,---,0.00,VWS V14.01,2013-06-28 18:56:00,
2013-06-28 15:01:00,6.1,-4.5,28.91,North,0,0.0,0.0,61,0.00,,---,0.00,VWS V14.01,2013-06-28 19:01:00,
2013-06-28 15:06:00,5.5,-5.0,28.91,North,0,0.0,0.0,61,0.00,,---,0.00,VWS V14.01,2013-06-28 19:06:00,
2013-06-28 15:11:00,5.4,-5.2,28.91,North,0,0.0,0.0,61,0.00,,---,0.00,VWS V14.01,2013-06-28 19:11:00,
2013-06-28 15:16:00,4.6,-5.8,28.91,North,0,0.0,0.0,61,0.00,,---,0.00,VWS V14.01,2013-06-28 19:16:00,
2013-06-28 15:21:00,4.3,-6.2,28.88,North,0,0.0,0.0,61,0.00,,---,0.00,VWS V14.01,2013-06-28 19:21:00,
2013-06-28 15:27:00,4.1,-6.3,28.88,North,0,0.0,0.0,61,0.00,,---,0.00,VWS V14.01,2013-06-28 19:27:00,
2013-06-28 15:32:00,3.6,-6.9,28.88,North,0,0.0,0.0,61,0.00,,---,0.00,VWS V14.01,2013-06-28 19:32:00,
2013-06-28 15:43:00,2.8,-7.6,28.88,North,0,0.0,0.0,61,0.00,,---,0.00,VWS V14.01,2013-06-28 19:43:00,
2013-06-28 15:48:00,2.8,-7.6,28.88,North,0,0.0,0.0,61,0.00,,---,0.00,VWS V14.01,2013-06-28 19:48:00,
2013-06-28 15:53:00,2.8,-7.6,28.88,North,0,0.0,0.0,61,0.00,,---,0.00,VWS V14.01,2013-06-28 19:53:00,
2013-06-28 15:58:00,3.6,-6.9,28.88,North,0,0.0,0.0,61,0.00,,---,0.00,VWS V14.01,2013-06-28 19:58:00,
2013-06-28 16:04:00,4.1,-6.3,28.88,North,0,0.0,0.0,61,0.00,,---,0.00,VWS V14.01,2013-06-28 20:04:00,
2013-06-28 16:09:00,4.5,-6.0,28.88,North,0,0.0,0.0,61,0.00,,---,0.00,VWS V14.01,2013-06-28 20:09:00,
2013-06-28 16:14:00,5.4,-5.2,28.88,North,0,0.0,0.0,61,0.00,,---,0.00,VWS V14.01,2013-06-28 20:14:00,
2013-06-28 16:19:00,5.7,-4.8,28.88,North,0,0.0,0.0,61,0.00,,---,0.00,VWS V14.01,2013-06-28 20:19:00,
2013-06-28 16:24:00,6.1,-4.5,28.88,North,0,0.0,0.0,61,0.00,,---,0.00,VWS V14.01,2013-06-28 20:24:00,
2013-06-28 16:29:00,6.4,-4.1,28.88,North,0,0.0,0.0,61,0.00,,---,0.00,VWS V14.01,2013-06-28 20:29:00,
2013-06-28 16:34:00,6.8,-3.8,28.88,North,0,0.0,0.0,61,0.00,,---,0.00,VWS V14.01,2013-06-28 20:34:00,
2013-06-28 16:40:00,7.2,-3.4,28.88,North,0,0.0,0.0,61,0.00,,---,0.00,VWS V14.01,2013-06-28 20:40:00,
2013-06-28 16:45:00,7.7,-2.9,28.88,North,0,0.0,0.0,61,0.00,,---,0.00,VWS V14.01,2013-06-28 20:45:00,
2013-06-28 16:51:00,8.1,-2.6,28.88,North,0,0.0,0.0,61,0.00,,---,0.00,VWS V14.01,2013-06-28 20:51:00,
2013-06-28 16:56:00,8.1,-2.6,28.88,North,0,0.0,0.0,61,0.00,,---,0.00,VWS V14.01,2013-06-28 20:56:00,
2013-06-28 17:02:00,8.1,-2.6,28.88,North,0,0.0,0.0,61,0.00,,---,0.00,VWS V14.01,2013-06-28 21:02:00,
2013-06-28 17:07:00,9.1,-1.6,28.88,North,0,0.0,0.0,61,0.00,,---,0.00,VWS V14.01,2013-06-28 21:07:00,
2013-06-28 17:12:00,9.5,-1.2,28.88,North,0,0.0,0.0,61,0.00,,---,0.00,VWS V14.01,2013-06-28 21:12:00,
2013-06-28 17:17:00,9.7,-1.0,28.88,North,0,0.0,0.0,61,0.00,,---,0.00,VWS V14.01,2013-06-28 21:17:00,
2013-06-28 17:22:00,10.0,-0.7,28.88,North,0,0.0,0.0,61,0.00,,---,0.00,VWS V14.01,2013-06-28 21:22:00,
2013-06-28 17:27:00,10.0,-0.7,28.88,North,0,0.0,0.0,61,0.00,,---,0.00,VWS V14.01,2013-06-28 21:27:00,
2013-06-28 17:32:00,9.9,-0.9,28.88,North,0,0.0,0.0,61,0.00,,---,0.00,VWS V14.01,2013-06-28 21:32:00,
2013-06-28 17:37:00,8.8,-1.9,28.88,North,0,0.0,0.0,61,0.00,,---,0.00,VWS V14.01,2013-06-28 21:37:00,
2013-06-28 17:42:00,8.8,-1.9,28.88,North,0,0.0,0.0,61,0.00,,---,0.00,VWS V14.01,2013-06-28 21:42:00,
2013-06-28 17:47:00,7.7,-2.9,28.88,North,0,0.0,0.0,61,0.00,,---,0.00,VWS V14.01,2013-06-28 21:47:00,
2013-06-28 17:52:00,7.0,-3.6,28.88,North,0,0.0,0.0,61,0.00,,---,0.00,VWS V14.01,2013-06-28 21:52:00,
2013-06-28 17:57:00,6.4,-4.1,28.88,North,0,0.0,0.0,61,0.00,,---,0.00,VWS V14.01,2013-06-28 21:57:00,
2013-06-28 18:02:00,6.1,-4.5,28.88,North,0,0.0,0.0,61,0.00,,---,0.00,VWS V14.01,2013-06-28 22:02:00,
2013-06-28 18:07:00,5.5,-5.0,28.88,North,0,0.0,0.0,61,0.00,,---,0.00,VWS V14.01,2013-06-28 22:07:00,
2013-06-28 18:12:00,5.4,-5.2,28.88,North,0,0.0,0.0,61,0.00,,---,0.00,VWS V14.01,2013-06-28 22:12:00,